EW1135 Weather Reports


Display with metric or nautical units.
time (UTC)temp
F
wind
direction
speed
MPH
gust
MPH
rain 1hr
in
rain 24hr
in
rain mn
in
humidity
%
barometer
mb
20260901021518 57 225 13.0 0.0 0.00 0.00 0.00 88 1009.4
20260901020018 57 237 13.0 0.0 0.00 0.00 0.00 87 1009.6
20260901014515 57 252 12.0 0.0 0.00 0.00 0.00 87 1009.4
20260901013016 57 229 11.0 0.0 0.00 0.00 0.00 87 1009.2
20260901011557 57 242 8.0 0.0 0.00 0.00 0.00 86 1009.2
20260901010057 57 240 8.0 0.0 0.00 0.00 0.00 86 1009.1
20260901004538 58 248 9.0 0.0 0.00 0.00 0.00 86 1009.2
20260901003038 58 239 13.0 0.0 0.00 0.00 0.00 85 1009.4
20260901001526 58 237 10.0 0.0 0.00 0.00 0.00 86 1009.2
20260901000025 58 238 12.0 0.0 0.00 0.00 0.00 85 1009.4
20260831234525 59 240 12.0 0.0 0.00 0.00 0.00 85 1009.3
20260831233024 59 232 12.0 0.0 0.00 0.00 0.00 85 1009.4
20260831231524 59 237 11.0 0.0 0.00 0.00 0.00 86 1009.4
20260831230024 59 227 14.0 0.0 0.00 0.00 0.00 85 1009.5
20260831224524 58 230 15.0 0.0 0.00 0.00 0.00 85 1009.7
20260831223023 59 237 15.0 0.0 0.00 0.00 0.00 85 1009.7
20260831221516 59 238 16.0 0.0 0.00 0.00 0.00 85 1009.6
20260831220005 59 243 16.0 0.0 0.00 0.00 0.00 85 1009.6
20260831214552 59 232 16.0 0.0 0.00 0.00 0.00 85 1009.5
20260831213055 59 239 17.0 0.0 0.00 0.00 0.00 85 1009.5
20260831211602 58 234 17.0 0.0 0.00 0.00 0.00 85 1009.3
20260831210051 58 237 15.0 0.0 0.00 0.00 0.00 84 1009.3
20260831204549 58 242 12.0 0.0 0.00 0.00 0.00 83 1009.3
20260831203049 59 219 8.0 0.0 0.00 0.00 0.00 83 1009.5
20260831201553 60 260 10.0 0.0 0.00 0.00 0.00 82 1009.6
20260831200045 61 248 9.0 0.0 0.00 0.00 0.00 82 1009.7
20260831194619 61 265 7.0 0.0 0.00 0.00 0.00 83 1009.6
20260831193030 62 270 4.0 0.0 0.00 0.00 0.00 82 1009.4
20260831191527 62 265 2.0 0.0 0.00 0.00 0.00 84 1009.3
20260831190023 61 265 3.0 0.0 0.00 0.00 0.00 84 1009.3
20260831184538 61 244 4.0 0.0 0.00 0.00 0.00 85 1009.3
20260831183018 61 229 6.0 0.0 0.00 0.00 0.00 86 1009.5
20260831181520 60 223 4.0 0.0 0.00 0.00 0.00 87 1009.6
20260831180010 59 222 3.0 0.0 0.00 0.00 0.00 87 1009.6
20260831174508 59 234 4.0 0.0 0.00 0.00 0.00 88 1009.7
20260831173046 58 235 3.0 0.0 0.00 0.00 0.00 89 1009.7
20260831171544 57 37 0.0 0.0 0.00 0.00 0.00 89 1009.6
20260831170050 57 37 0.0 0.0 0.00 0.00 0.00 89 1009.6
20260831164520 56 37 0.0 0.0 0.00 0.00 0.00 89 1009.5
20260831163003 56 37 0.0 0.0 0.00 0.00 0.00 89 1009.6
20260831161612 56 37 2.0 0.0 0.00 0.00 0.00 89 1009.7
20260831160055 56 36 5.0 0.0 0.00 0.00 0.00 90 1009.8
20260831154600 55 50 1.0 0.0 0.00 0.00 0.00 90 1009.6
20260831153047 55 43 0.0 0.0 0.00 0.00 0.00 90 1009.8
20260831151545 54 47 0.0 0.0 0.00 0.00 0.00 90 1009.8
20260831150040 54 45 1.0 0.0 0.00 0.00 0.00 90 1009.9
20260831144538 53 348 1.0 0.0 0.00 0.00 0.00 89 1009.8
20260831143022 54 239 2.0 0.0 0.00 0.00 0.00 89 1009.7
20260831141520 53 67 3.0 0.0 0.00 0.00 0.00 89 1009.4
20260831140023 52 115 2.0 0.0 0.00 0.00 0.00 89 1009.3
20260831134519 52 62 3.0 0.0 0.00 0.00 0.00 89 1009.3
20260831133017 52 88 3.0 0.0 0.00 0.00 0.00 89 1009.3
20260831131517 52 85 1.0 0.0 0.00 0.00 0.00 89 1009.4
20260831130015 52 133 0.0 0.0 0.00 0.00 0.00 89 1009.5
20260831124514 52 101 0.0 0.0 0.00 0.00 0.00 89 1009.6
20260831123057 52 83 0.0 0.0 0.00 0.00 0.00 89 1009.5
20260831121556 52 81 0.0 0.0 0.00 0.00 0.00 88 1009.7
20260831120042 52 81 0.0 0.0 0.00 0.00 0.00 89 1009.8
20260831114540 53 81 0.0 0.0 0.00 0.00 0.00 89 1009.9
20260831113038 53 81 0.0 0.0 0.00 0.00 0.00 89 1010.0
20260831111536 53 81 1.0 0.0 0.00 0.00 0.00 88 1010.2
20260831110035 53 81 3.0 0.0 0.00 0.00 0.00 89 1010.1
20260831104542 54 63 1.0 0.0 0.00 0.00 0.00 88 1010.2
20260831103053 54 110 2.0 0.0 0.00 0.00 0.00 89 1010.2
20260831101533 54 82 2.0 0.0 0.00 0.00 0.00 88 1010.1
20260831100033 54 38 3.0 0.0 0.00 0.00 0.00 88 1010.3
20260831094528 54 58 4.0 0.0 0.00 0.00 0.00 88 1010.4
20260831093016 54 49 4.0 0.0 0.00 0.00 0.00 88 1010.5
20260831091514 54 50 4.0 0.0 0.00 0.00 0.00 88 1010.6
20260831090013 54 50 3.0 0.0 0.00 0.00 0.00 88 1010.8
20260831084511 54 48 3.0 0.0 0.00 0.00 0.00 87 1011.0
20260831083018 54 52 4.0 0.0 0.00 0.00 0.00 87 1011.1
20260831081507 54 52 4.0 0.0 0.00 0.00 0.00 87 1011.3
20260831080104 54 68 2.0 0.0 0.00 0.00 0.00 87 1011.4
20260831074551 54 78 1.0 0.0 0.00 0.00 0.00 87 1011.6
20260831073050 55 78 1.0 0.0 0.00 0.00 0.00 87 1011.8
20260831071548 54 78 0.0 0.0 0.00 0.00 0.00 86 1011.9
20260831070046 55 78 0.0 0.0 0.00 0.00 0.00 86 1012.0
20260831064545 55 78 0.0 0.0 0.00 0.00 0.00 86 1012.1
20260831063045 55 78 0.0 0.0 0.00 0.00 0.00 86 1012.2
20260831061542 56 78 0.0 0.0 0.00 0.00 0.00 86 1012.4
20260831060031 56 77 0.0 0.0 0.00 0.00 0.00 85 1012.5
20260831054530 56 77 1.0 0.0 0.00 0.00 0.00 86 1012.6
20260831053028 56 48 3.0 0.0 0.00 0.00 0.00 85 1012.9
20260831051531 56 75 3.0 0.0 0.00 0.00 0.00 85 1013.1
20260831050025 57 61 2.0 0.0 0.00 0.00 0.00 85 1013.1
20260831044525 57 61 0.0 0.0 0.00 0.00 0.00 85 1013.2
20260831043024 58 61 2.0 0.0 0.00 0.00 0.00 84 1013.3
20260831041524 58 60 4.0 0.0 0.00 0.00 0.00 84 1013.4
20260831040011 58 65 9.0 0.0 0.00 0.00 0.00 84 1013.3
20260831034511 59 49 15.0 0.0 0.00 0.00 0.00 84 1013.4
20260831033009 59 86 16.0 0.0 0.00 0.00 0.00 84 1013.2
20260831031508 59 54 16.0 0.0 0.00 0.00 0.00 84 1013.3
20260831030007 59 51 17.0 0.0 0.00 0.00 0.00 84 1013.4
20260831024507 59 46 18.0 0.0 0.00 0.00 0.00 83 1013.5
20260831023006 60 50 17.0 0.0 0.00 0.00 0.00 83 1013.5